| time (UTC) | temp F | wind direction | speed MPH | gust MPH | rain 1hr in | rain 24hr in | rain mn in | humidity % | barometer mb |
| 20260901180029 | 65 | 116 | 1.0 | 0.0 | 0.00 | 0.00 | 0.01 | 59 | 1027.0 |
| 20260901175025 | 65 | 258 | 1.0 | 0.0 | 0.00 | 0.00 | 0.01 | 61 | 1026.9 |
| 20260901174025 | 65 | 126 | 1.0 | 0.0 | 0.00 | 0.00 | 0.01 | 56 | 1026.9 |
| 20260901172040 | 64 | 163 | 1.0 | 0.0 | 0.00 | 0.00 | 0.01 | 58 | 1027.5 |
| 20260901170033 | 64 | 287 | 0.0 | 0.0 | 0.00 | 0.00 | 0.01 | 61 | 1027.9 |
| 20260901165030 | 64 | 209 | 1.0 | 0.0 | 0.00 | 0.00 | 0.01 | 59 | 1028.1 |
| 20260901164033 | 63 | 271 | 0.0 | 0.0 | 0.00 | 0.00 | 0.01 | 61 | 1028.1 |
| 20260901163030 | 62 | 238 | 1.0 | 0.0 | 0.00 | 0.00 | 0.01 | 65 | 1028.0 |
| 20260901162025 | 62 | 192 | 0.0 | 0.0 | 0.00 | 0.00 | 0.01 | 64 | 1028.0 |
| 20260901161021 | 62 | 252 | 0.0 | 0.0 | 0.00 | 0.00 | 0.01 | 65 | 1027.9 |
| 20260901160023 | 60 | 135 | 1.0 | 0.0 | 0.00 | 0.00 | 0.01 | 68 | 1028.0 |
| 20260901155019 | 60 | 238 | 0.0 | 0.0 | 0.00 | 0.00 | 0.01 | 70 | 1028.2 |
| 20260901154039 | 59 | 236 | 1.0 | 0.0 | 0.00 | 0.00 | 0.01 | 71 | 1027.7 |
| 20260901153035 | 59 | 292 | 1.0 | 0.0 | 0.00 | 0.00 | 0.01 | 74 | 1027.5 |
| 20260901152031 | 59 | 165 | 0.0 | 0.0 | 0.00 | 0.00 | 0.01 | 73 | 1027.4 |
| 20260901151035 | 57 | 242 | 0.0 | 0.0 | 0.00 | 0.00 | 0.01 | 76 | 1027.8 |
| 20260901145029 | 54 | 168 | 0.0 | 0.0 | 0.00 | 0.00 | 0.01 | 83 | 1027.9 |
| 20260901143025 | 53 | 242 | 0.0 | 0.0 | 0.00 | 0.00 | 0.01 | 85 | 1028.1 |
| 20260901142029 | 53 | 302 | 0.0 | 0.0 | 0.00 | 0.00 | 0.01 | 87 | 1028.1 |
| 20260901135028 | 49 | 259 | 0.0 | 0.0 | 0.00 | 0.00 | 0.01 | 94 | 1027.6 |
| 20260901133029 | 48 | 260 | 0.0 | 0.0 | 0.00 | 0.00 | 0.01 | 94 | 1027.6 |
| 20260901131026 | 48 | 259 | 0.0 | 0.0 | 0.00 | 0.00 | 0.01 | 95 | 1027.5 |
| 20260901130026 | 48 | 259 | 0.0 | 0.0 | 0.00 | 0.00 | 0.01 | 95 | 1027.3 |
| 20260901124032 | 47 | 295 | 0.0 | 0.0 | 0.00 | 0.00 | 0.01 | 95 | 1027.1 |
| 20260901123027 | 47 | 295 | 0.0 | 0.0 | 0.00 | 0.00 | 0.01 | 95 | 1027.1 |
| 20260901122026 | 47 | 295 | 0.0 | 0.0 | 0.00 | 0.00 | 0.01 | 95 | 1027.0 |
| 20260901121023 | 47 | 84 | 0.0 | 0.0 | 0.00 | 0.00 | 0.01 | 95 | 1026.9 |
| 20260901120024 | 47 | 84 | 0.0 | 0.0 | 0.00 | 0.00 | 0.01 | 96 | 1026.8 |
| 20260901115023 | 47 | 84 | 0.0 | 0.0 | 0.00 | 0.00 | 0.01 | 96 | 1026.8 |
| 20260901114024 | 47 | 84 | 0.0 | 0.0 | 0.00 | 0.00 | 0.01 | 96 | 1026.7 |
| 20260901113021 | 47 | 84 | 0.0 | 0.0 | 0.00 | 0.00 | 0.01 | 96 | 1026.4 |
| 20260901112037 | 47 | 84 | 0.0 | 0.0 | 0.00 | 0.00 | 0.01 | 96 | 1026.6 |
| 20260901111039 | 47 | 84 | 0.0 | 0.0 | 0.00 | 0.00 | 0.01 | 96 | 1026.3 |
| 20260901110035 | 47 | 84 | 0.0 | 0.0 | 0.00 | 0.00 | 0.01 | 96 | 1026.5 |
| 20260901105031 | 47 | 84 | 0.0 | 0.0 | 0.00 | 0.00 | 0.01 | 96 | 1026.6 |
| 20260901104029 | 47 | 84 | 0.0 | 0.0 | 0.00 | 0.00 | 0.00 | 96 | 1026.6 |
| 20260901103035 | 46 | 84 | 0.0 | 0.0 | 0.00 | 0.00 | 0.00 | 95 | 1026.6 |
| 20260901101030 | 46 | 84 | 0.0 | 0.0 | 0.00 | 0.00 | 0.00 | 95 | 1026.6 |
| 20260901095034 | 48 | 84 | 0.0 | 0.0 | 0.00 | 0.00 | 0.00 | 95 | 1026.8 |
| 20260901093038 | 48 | 84 | 0.0 | 0.0 | 0.00 | 0.00 | 0.00 | 96 | 1026.9 |
| 20260901092019 | 48 | 84 | 0.0 | 0.0 | 0.00 | 0.00 | 0.00 | 96 | 1026.8 |
| 20260901091038 | 48 | 84 | 0.0 | 0.0 | 0.00 | 0.00 | 0.00 | 95 | 1026.8 |
| 20260901090033 | 47 | 84 | 0.0 | 0.0 | 0.00 | 0.00 | 0.00 | 95 | 1027.1 |
| 20260901085031 | 47 | 84 | 0.0 | 0.0 | 0.00 | 0.00 | 0.00 | 95 | 1027.2 |
| 20260901083034 | 48 | 84 | 0.0 | 0.0 | 0.00 | 0.00 | 0.00 | 95 | 1027.2 |
| 20260901082033 | 49 | 84 | 0.0 | 0.0 | 0.00 | 0.00 | 0.00 | 95 | 1027.3 |
| 20260901081031 | 49 | 84 | 0.0 | 0.0 | 0.00 | 0.00 | 0.00 | 95 | 1027.4 |
| 20260901080030 | 49 | 84 | 0.0 | 0.0 | 0.00 | 0.00 | 0.00 | 95 | 1026.9 |
| 20260901075035 | 49 | 84 | 0.0 | 0.0 | 0.00 | 0.00 | 0.00 | 95 | 1026.9 |
| 20260901074033 | 49 | 84 | 0.0 | 0.0 | 0.00 | 0.00 | 0.00 | 95 | 1027.7 |
| 20260901072031 | 49 | 84 | 0.0 | 0.0 | 0.00 | 0.00 | 0.00 | 95 | 1027.7 |
| 20260901071029 | 49 | 84 | 0.0 | 0.0 | 0.00 | 0.00 | 0.00 | 95 | 1027.8 |
| 20260901070034 | 50 | 84 | 0.0 | 0.0 | 0.00 | 0.00 | 0.00 | 94 | 1027.9 |
| 20260901064030 | 50 | 84 | 0.0 | 0.0 | 0.00 | 0.00 | 0.00 | 95 | 1027.9 |
| 20260901063026 | 50 | 84 | 0.0 | 0.0 | 0.00 | 0.00 | 0.00 | 94 | 1028.0 |
| 20260901062027 | 50 | 84 | 0.0 | 0.0 | 0.00 | 0.00 | 0.00 | 94 | 1028.0 |
| 20260901061024 | 50 | 84 | 0.0 | 0.0 | 0.00 | 0.00 | 0.00 | 94 | 1027.8 |
| 20260901060020 | 50 | 84 | 0.0 | 0.0 | 0.00 | 0.00 | 0.00 | 93 | 1027.7 |
| 20260901055037 | 51 | 84 | 0.0 | 0.0 | 0.00 | 0.00 | 0.04 | 93 | 1027.8 |
| 20260901054036 | 51 | 84 | 0.0 | 0.0 | 0.00 | 0.00 | 0.04 | 93 | 1027.9 |
| 20260901050036 | 51 | 84 | 0.0 | 0.0 | 0.00 | 0.00 | 0.03 | 93 | 1027.9 |
| 20260901043039 | 51 | 84 | 0.0 | 0.0 | 0.00 | 0.00 | 0.03 | 93 | 1027.7 |
| 20260901042033 | 51 | 84 | 0.0 | 0.0 | 0.00 | 0.00 | 0.03 | 93 | 1027.7 |
| 20260901040034 | 51 | 84 | 0.0 | 0.0 | 0.00 | 0.00 | 0.03 | 93 | 1027.6 |
| 20260901035033 | 51 | 84 | 0.0 | 0.0 | 0.00 | 0.00 | 0.03 | 93 | 1027.8 |
| 20260901033031 | 51 | 84 | 0.0 | 0.0 | 0.00 | 0.00 | 0.03 | 93 | 1028.1 |
| 20260901032029 | 51 | 84 | 0.0 | 0.0 | 0.00 | 0.00 | 0.03 | 93 | 1028.4 |
| 20260901031027 | 51 | 84 | 0.0 | 0.0 | 0.00 | 0.00 | 0.03 | 92 | 1028.4 |
| 20260901030031 | 51 | 84 | 0.0 | 0.0 | 0.00 | 0.00 | 0.03 | 92 | 1028.5 |
| 20260901025028 | 51 | 84 | 0.0 | 0.0 | 0.00 | 0.00 | 0.03 | 92 | 1028.5 |
| 20260901024025 | 52 | 84 | 1.0 | 0.0 | 0.00 | 0.00 | 0.03 | 92 | 1028.4 |
| 20260901023023 | 52 | 84 | 0.0 | 0.0 | 0.00 | 0.00 | 0.03 | 92 | 1028.5 |
| 20260901022041 | 52 | 84 | 1.0 | 0.0 | 0.00 | 0.00 | 0.03 | 91 | 1028.3 |
| 20260901021022 | 53 | 111 | 1.0 | 0.0 | 0.00 | 0.00 | 0.03 | 91 | 1028.7 |
| 20260901020042 | 53 | 286 | 0.0 | 0.0 | 0.00 | 0.00 | 0.02 | 91 | 1028.9 |
| 20260901015038 | 53 | 286 | 0.0 | 0.0 | 0.00 | 0.00 | 0.02 | 91 | 1028.5 |
| 20260901014037 | 54 | 286 | 0.0 | 0.0 | 0.00 | 0.00 | 0.02 | 90 | 1028.5 |
| 20260901013038 | 54 | 286 | 0.0 | 0.0 | 0.00 | 0.00 | 0.02 | 90 | 1028.5 |
| 20260901012034 | 54 | 286 | 0.0 | 0.0 | 0.00 | 0.00 | 0.02 | 89 | 1028.4 |
| 20260901011031 | 54 | 286 | 0.0 | 0.0 | 0.00 | 0.00 | 0.02 | 90 | 1028.4 |
| 20260901010027 | 54 | 286 | 0.0 | 0.0 | 0.00 | 0.00 | 0.02 | 88 | 1028.4 |
| 20260901004024 | 55 | 284 | 0.0 | 0.0 | 0.00 | 0.00 | 0.02 | 86 | 1028.4 |
| 20260901003020 | 56 | 276 | 0.0 | 0.0 | 0.00 | 0.00 | 0.02 | 84 | 1028.3 |
| 20260901002039 | 57 | 277 | 0.0 | 0.0 | 0.00 | 0.00 | 0.02 | 82 | 1028.2 |
| 20260901001036 | 57 | 242 | 0.0 | 0.0 | 0.00 | 0.00 | 0.01 | 77 | 1028.4 |
| 20260901000032 | 57 | 242 | 0.0 | 0.0 | 0.00 | 0.00 | 0.01 | 75 | 1028.6 |
| 20260831235036 | 57 | 242 | 0.0 | 0.0 | 0.00 | 0.00 | 0.01 | 75 | 1028.4 |
| 20260831234033 | 57 | 242 | 0.0 | 0.0 | 0.00 | 0.00 | 0.01 | 74 | 1028.4 |
| 20260831233030 | 56 | 241 | 0.0 | 0.0 | 0.00 | 0.00 | 0.01 | 76 | 1028.1 |
| 20260831232026 | 57 | 237 | 0.0 | 0.0 | 0.00 | 0.00 | 0.01 | 78 | 1027.1 |
| 20260831231027 | 58 | 222 | 0.0 | 0.0 | 0.00 | 0.00 | 0.01 | 73 | 1027.2 |
| 20260831230023 | 61 | 194 | 1.0 | 0.0 | 0.00 | 0.00 | 0.01 | 64 | 1027.3 |
| 20260831225022 | 63 | 119 | 0.0 | 0.0 | 0.00 | 0.00 | 0.01 | 51 | 1027.1 |
| 20260831223041 | 64 | 360 | 0.0 | 0.0 | 0.00 | 0.00 | 0.01 | 60 | 1026.7 |
| 20260831222020 | 64 | 355 | 0.0 | 0.0 | 0.00 | 0.00 | 0.01 | 64 | 1027.0 |
| 20260831221021 | 64 | 355 | 0.0 | 0.0 | 0.00 | 0.00 | 0.01 | 59 | 1026.9 |
| 20260831220024 | 65 | 355 | 0.0 | 0.0 | 0.00 | 0.00 | 0.01 | 59 | 1027.0 |
| 20260831215022 | 65 | 355 | 0.0 | 0.0 | 0.00 | 0.00 | 0.01 | 57 | 1026.9 |
| 20260831212041 | 65 | 360 | 0.0 | 0.0 | 0.00 | 0.00 | 0.01 | 57 | 1027.2 |
| 20260831211038 | 65 | 355 | 0.0 | 0.0 | 0.00 | 0.00 | 0.01 | 60 | 1027.6 |
| 20260831205030 | 65 | 360 | 1.0 | 0.0 | 0.00 | 0.00 | 0.01 | 62 | 1028.1 |
| 20260831204029 | 64 | 360 | 1.0 | 0.0 | 0.00 | 0.00 | 0.01 | 65 | 1028.4 |
| 20260831203027 | 63 | 87 | 1.0 | 0.0 | 0.00 | 0.00 | 0.01 | 65 | 1028.3 |
| 20260831202023 | 62 | 81 | 3.0 | 0.0 | 0.00 | 0.00 | 0.01 | 66 | 1028.3 |
| 20260831201020 | 63 | 103 | 1.0 | 0.0 | 0.00 | 0.00 | 0.01 | 65 | 1028.3 |
| 20260831200039 | 64 | 10 | 1.0 | 0.0 | 0.00 | 0.00 | 0.01 | 64 | 1028.4 |
| 20260831195044 | 64 | 76 | 0.0 | 0.0 | 0.00 | 0.00 | 0.01 | 68 | 1027.9 |
| 20260831194034 | 62 | 86 | 0.0 | 0.0 | 0.00 | 0.00 | 0.01 | 72 | 1028.3 |
| 20260831190034 | 60 | 98 | 1.0 | 0.0 | 0.00 | 0.00 | 0.01 | 75 | 1029.2 |
| 20260831185030 | 60 | 105 | 0.0 | 0.0 | 0.00 | 0.00 | 0.01 | 76 | 1029.4 |
| 20260831184026 | 59 | 105 | 0.0 | 0.0 | 0.00 | 0.00 | 0.01 | 76 | 1029.4 |
| 20260831183024 | 59 | 105 | 0.0 | 0.0 | 0.00 | 0.00 | 0.01 | 78 | 1029.5 |
| 20260831182022 | 58 | 105 | 1.0 | 0.0 | 0.00 | 0.00 | 0.01 | 80 | 1029.8 |
| 20260831181022 | 58 | 84 | 1.0 | 0.0 | 0.00 | 0.00 | 0.01 | 82 | 1029.9 |